[[{"header":{"parameterUnit":"m.s-1","parameterCategory":1,"la1":30.2991,"la2":30.254,"lo1":-89.0895,"lo2":-89.0444,"dy":0.0017,"dx":0.0017,"nx":28,"ny":28,"refTime":"2024-02-22T09:00:00:Z","depth":0,"parameterNumber":2,"parameterNumberName":"U-component_of_WINDS"},"data":[0,0,0,0,0,0,0,0,0,0,0,0,0,0,0,0,0,0,0,0,0,0,0,0,0,0,0,0,0,0,0,0,0,0,0,0,0,0,0,0,0,0,0,0,0,0,0,0,0,0,0,0,0,0,0,0,0,0,4.0373,4.0374,0,4.0439,4.044,4.044,4.0426,4.0425,4.0424,4.0423,4.0491,4.0493,4.0496,0,0,0,0,0,0,0,0,0,0,0,0,0,4.0237,4.024,4.0373,4.0374,4.0375,4.0439,4.044,4.0441,4.0427,4.0425,4.0424,4.0422,4.049,4.0493,4.0497,0,0,0,0,0,0,0,0,0,0,0,0,0,4.0299,4.0241,4.0373,4.0375,4.0376,4.0439,4.044,4.0441,4.0427,4.0425,4.0423,4.0422,4.0488,4.0493,4.0497,4.0561,0,0,4.0511,4.0512,0,0,0,0,0,0,0,0,4.0296,4.0304,4.0374,4.0375,4.0376,4.0423,4.0417,4.0481,4.0427,4.0408,4.0423,4.0421,4.0469,4.0475,4.0492,4.0564,4.0567,4.0511,4.0514,4.0515,4.0517,0,0,0,0,0,0,0,4.0291,4.0301,4.0399,4.0375,4.0377,4.0374,4.0381,4.0429,4.0448,4.0409,4.0408,4.0416,4.047,4.0487,4.0493,4.0568,4.0511,4.0515,4.0517,4.0519,4.0701,4.0703,0,0,0,0,0,0,4.0286,4.0298,4.0397,4.0401,4.0331,4.0378,4.0385,4.041,4.0447,4.0451,4.0418,4.0416,4.0481,4.0488,4.0495,4.0576,4.0515,4.052,4.0522,4.0699,4.0701,4.0704,0,0,0,0,0,0,4.0283,4.0295,4.0394,4.0349,4.0362,4.0382,4.0409,4.0412,4.043,4.0454,4.0457,4.0432,4.048,4.0489,4.0546,4.0578,4.0522,4.0526,4.0696,4.0699,4.0702,4.0736,0,0,0,0,0,0,4.0279,4.0294,4.0318,4.035,4.0364,4.0443,4.0411,4.0414,4.0437,4.0435,4.0469,4.0472,4.0479,4.0539,4.055,4.0583,4.0529,4.0693,4.0697,4.0701,4.0732,4.074,4.0746,0,0,0,0,0,4.0274,4.0323,4.0319,4.0331,4.0394,4.0445,4.0453,4.0459,4.044,4.0465,4.0481,4.0471,4.0572,4.0545,4.0557,4.0592,4.0691,4.0696,4.0701,4.0729,4.0738,4.0746,0,0,0,0,0,0,4.0294,4.0328,4.0323,4.0384,4.0412,4.0442,4.0473,4.0469,4.0502,4.0499,4.0505,4.0513,4.0572,4.0587,4.0556,4.0658,4.0629,4.0637,4.0646,4.0655,4.0662,4.0658,4.0533,0,0,0,0,0,4.0305,4.0343,4.037,4.0422,4.0436,4.0453,4.0475,4.0478,4.0507,4.0518,4.0538,4.0567,4.0606,4.0631,4.0667,4.0734,4.0743,4.0764,4.0771,4.0777,4.0784,4.0824,4.0835,4.072,4.072,4.072,0,0,4.0329,4.0352,4.0375,4.0426,4.0448,4.0489,4.0462,4.0505,4.0536,4.0525,4.058,4.0596,4.0629,4.0692,4.072,4.0706,4.0818,4.0783,4.0788,4.0792,4.083,4.0841,4.0851,4.0723,4.0722,4.0722,0,0,4.0394,4.0414,4.0461,4.0484,4.0518,4.0529,4.054,4.0572,4.0583,4.0639,4.0632,4.0669,4.0734,4.0759,4.078,4.0858,4.0852,4.0869,4.0908,4.0947,4.0956,4.0964,4.0995,4.1006,4.0876,4.0876,4.0876,0,4.042,4.048,4.0485,4.053,4.0554,4.0546,4.0595,4.0617,4.0661,4.0678,4.0662,4.0747,4.0768,4.0838,4.0858,4.0874,4.0889,4.0866,4.0954,4.0963,4.097,4.1,4.1011,4.0878,4.0878,4.0878,4.0878,0,4.0511,4.0553,4.0587,4.0631,4.0658,4.0705,4.0719,4.0746,4.0747,4.076,4.0819,4.0845,4.0888,4.0905,4.0905,4.0976,4.0967,4.0952,4.0924,4.0983,4.1012,4.1023,4.0881,4.0881,4.088,4.0879,0,0,4.059,4.0638,4.0651,4.0673,4.0711,4.0744,4.0791,4.0834,4.0859,4.0889,4.0931,4.0988,4.0976,4.1,4.1003,4.1037,4.1102,4.1019,4.102,4.1036,4.1186,4.1198,4.1211,4.1097,4.1099,4.1101,4.1184,0,4.0661,4.0744,4.0752,4.0827,4.0868,4.0862,4.0904,4.0932,4.0947,4.0984,4.0999,4.1041,4.102,4.1035,4.1068,4.1087,4.1132,4.108,4.1138,4.114,4.1133,4.1225,4.1238,4.1315,4.1195,4.1196,4.1198,0,4.0754,4.079,4.087,4.0905,4.0923,4.096,4.1002,4.1036,4.107,4.1078,4.1107,4.1107,4.1157,4.1126,4.1197,4.1162,4.1186,4.1199,4.1202,4.1209,4.1174,4.1238,4.134,4.1353,4.1214,4.1213,4.1212,0,4.0808,4.0875,4.0933,4.0951,4.0993,4.102,4.1039,4.107,4.1097,4.1133,4.1151,4.1193,4.1216,4.1249,4.1262,4.1237,4.1334,4.1302,4.1344,4.1344,4.1366,4.1365,4.1476,4.1377,4.1377,4.1377,4.1376,0,4.0888,4.0938,4.0958,4.0994,4.105,4.1059,4.1115,4.1133,4.1161,4.1201,4.1198,4.1236,4.1248,4.1289,4.1299,4.1358,4.1368,4.1378,4.138,4.138,4.1379,4.1397,4.1394,4.138,4.1379,4.1378,4.1378,0,4.0958,4.0973,4.1036,4.1072,4.1082,4.1122,4.1153,4.1189,4.1202,4.1254,4.1266,4.1289,4.1337,4.1352,4.1409,4.1415,4.1486,4.1482,4.1476,4.1477,4.1519,4.1516,4.1648,4.1667,4.1552,4.1553,4.1554,0,4.101,4.1048,4.1088,4.1115,4.1136,4.1178,4.1206,4.1217,4.1246,4.1289,4.132,4.1367,4.1406,4.1483,4.1505,4.155,4.1549,4.1592,4.1556,4.1556,4.1554,4.1553,4.1559,4.16,4.1601,4.1602,4.1603,0,4.1101,4.1107,4.1147,4.1191,4.1224,4.1259,4.1292,4.1315,4.133,4.1364,4.1413,4.1443,4.1503,4.1552,4.1598,4.1618,4.1615,4.1614,4.1627,4.1628,4.1624,4.1631,4.1498,4.1611,4.1611,4.161,4.1609,4.1609,4.1165,4.1201,4.1236,4.1281,4.1308,4.134,4.1376,4.1396,4.1437,4.1487,4.149,4.1545,4.158,4.1642,4.1665,4.1709,4.1696,4.1714,4.1719,4.1724,4.1729,4.1615,4.1716,4.1716,4.1716,4.1716,4.1716,0,4.1259,4.1282,4.1324,4.1372,4.1408,4.1401,4.1438,4.147,4.1518,4.1551,4.159,4.1649,4.1696,4.1723,4.1771,4.1801,4.1801,4.1814,4.1813,4.1819,4.1735,4.1721,4.1813,4.1813,4.1813,4.1813,4.1813,4.1813,4.1313,4.1374,4.1385,4.146,4.1482,4.1536,4.1558,4.1589,4.1616,4.1681,4.1721,4.1738,4.177,4.182,4.1865,4.1871,4.1891,4.1905,4.1911,4.1834,4.1824,4.1814,4.1801,4.1909,4.1909,4.1991,4.1992,4.1993]},{"header":{"parameterUnit":"m.s-1","parameterCategory":1,"la1":30.2991,"la2":30.254,"lo1":-89.0895,"lo2":-89.0444,"dy":0.0017,"dx":0.0017,"nx":28,"ny":28,"refTime":"2024-02-22T09:00:00:Z","depth":0,"parameterNumber":3,"parameterNumberName":"V-component_of_WINDS"},"data":[0,0,0,0,0,0,0,0,0,0,0,0,0,0,0,0,0,0,0,0,0,0,0,0,0,0,0,0,0,0,0,0,0,0,0,0,0,0,0,0,0,0,0,0,0,0,0,0,0,0,0,0,0,0,0,0,0,0,-1.0401,-1.04,0,-1.0356,-1.0356,-1.0355,-1.0364,-1.0365,-1.0366,-1.0367,-1.0319,-1.0317,-1.0315,0,0,0,0,0,0,0,0,0,0,0,0,0,-1.0493,-1.0491,-1.0401,-1.04,-1.04,-1.0357,-1.0356,-1.0355,-1.0364,-1.0365,-1.0366,-1.0367,-1.032,-1.0317,-1.0315,0,0,0,0,0,0,0,0,0,0,0,0,0,-1.0451,-1.0491,-1.0401,-1.0399,-1.0399,-1.0357,-1.0356,-1.0355,-1.0364,-1.0365,-1.0367,-1.0368,-1.032,-1.0317,-1.0314,-1.0271,0,0,-1.0305,-1.0304,0,0,0,0,0,0,0,0,-1.0453,-1.0448,-1.04,-1.0399,-1.0399,-1.0367,-1.0371,-1.0327,-1.0364,-1.0377,-1.0367,-1.0368,-1.0334,-1.033,-1.0319,-1.0269,-1.0267,-1.0305,-1.0303,-1.0302,-1.0301,0,0,0,0,0,0,0,-1.0456,-1.045,-1.0383,-1.0399,-1.0398,-1.04,-1.0396,-1.0363,-1.0349,-1.0376,-1.0377,-1.0371,-1.0334,-1.0322,-1.0318,-1.0266,-1.0305,-1.0302,-1.03,-1.0299,-1.018,-1.0179,0,0,0,0,0,0,-1.046,-1.0452,-1.0385,-1.0382,-1.043,-1.0398,-1.0393,-1.0376,-1.0349,-1.0347,-1.037,-1.0372,-1.0326,-1.0321,-1.0316,-1.0264,-1.0302,-1.0299,-1.0297,-1.0181,-1.018,-1.0178,0,0,0,0,0,0,-1.0462,-1.0454,-1.0387,-1.0417,-1.0409,-1.0395,-1.0376,-1.0375,-1.0362,-1.0345,-1.0343,-1.0361,-1.0327,-1.032,-1.0283,-1.0263,-1.0297,-1.0295,-1.0183,-1.0181,-1.0179,-1.016,0,0,0,0,0,0,-1.0465,-1.0455,-1.0438,-1.0417,-1.0407,-1.0354,-1.0375,-1.0373,-1.0357,-1.0359,-1.0335,-1.0333,-1.0327,-1.0287,-1.028,-1.0259,-1.0292,-1.0184,-1.0182,-1.0179,-1.0163,-1.0158,-1.0154,0,0,0,0,0,-1.0468,-1.0434,-1.0437,-1.0429,-1.0386,-1.0353,-1.0347,-1.0343,-1.0356,-1.0339,-1.0328,-1.0333,-1.0266,-1.0283,-1.0275,-1.0253,-1.0186,-1.0183,-1.018,-1.0165,-1.0159,-1.0154,0,0,0,0,0,0,-1.0452,-1.0431,-1.0434,-1.0392,-1.0374,-1.0354,-1.0333,-1.0337,-1.0314,-1.0316,-1.0311,-1.0306,-1.0268,-1.0257,-1.0276,-1.0211,-1.0228,-1.0223,-1.0219,-1.0214,-1.0209,-1.0213,-1.029,0,0,0,0,0,-1.0443,-1.0419,-1.0401,-1.0366,-1.0357,-1.0347,-1.0332,-1.033,-1.0311,-1.0304,-1.029,-1.0271,-1.0246,-1.0229,-1.0205,-1.0161,-1.0157,-1.0142,-1.0138,-1.0135,-1.013,-1.0108,-1.0102,-1.0168,-1.0168,-1.0168,0,0,-1.0425,-1.0411,-1.0395,-1.0362,-1.0348,-1.0323,-1.034,-1.0312,-1.0293,-1.0299,-1.0263,-1.0253,-1.0231,-1.0191,-1.0172,-1.018,-1.0111,-1.0131,-1.0128,-1.0126,-1.0104,-1.0098,-1.0093,-1.0166,-1.0167,-1.0167,0,0,-1.038,-1.0366,-1.0336,-1.0322,-1.0302,-1.0295,-1.0288,-1.0268,-1.0262,-1.0226,-1.023,-1.0208,-1.0164,-1.0149,-1.0136,-1.0087,-1.0091,-1.0079,-1.0056,-1.0035,-1.003,-1.0025,-1.0008,-1.0003,-1.0075,-1.0075,-1.0075,0,-1.036,-1.0323,-1.032,-1.0292,-1.0278,-1.0284,-1.0253,-1.0239,-1.0211,-1.0201,-1.0211,-1.0158,-1.0144,-1.0101,-1.0089,-1.0078,-1.007,-1.0082,-1.0031,-1.0026,-1.0022,-1.0006,-1.0,-1.0074,-1.0074,-1.0074,-1.0074,0,-1.03,-1.0274,-1.0252,-1.0226,-1.0209,-1.018,-1.0173,-1.0157,-1.0157,-1.015,-1.0114,-1.0097,-1.0071,-1.006,-1.006,-1.0018,-1.0024,-1.0032,-1.0049,-1.0014,-0.9999,-0.9993,-1.0072,-1.0073,-1.0073,-1.0073,0,0,-1.0242,-1.0217,-1.0209,-1.0198,-1.0176,-1.0156,-1.0127,-1.0103,-1.0089,-1.007,-1.0046,-1.001,-1.0019,-1.0003,-1.0001,-0.9982,-0.9946,-0.9993,-0.9993,-0.9986,-0.9901,-0.9895,-0.9888,-0.9949,-0.9948,-0.9947,-0.9903,0,-1.0195,-1.0146,-1.0143,-1.0098,-1.0075,-1.0081,-1.0056,-1.0041,-1.0033,-1.0012,-1.0004,-0.9979,-0.9992,-0.9983,-0.9964,-0.9955,-0.9929,-0.9958,-0.9927,-0.9926,-0.9933,-0.988,-0.9873,-0.9832,-0.9897,-0.9896,-0.9895,0,-1.0134,-1.0114,-1.0067,-1.0051,-1.0041,-1.0019,-0.9997,-0.9977,-0.9959,-0.9955,-0.994,-0.9941,-0.9912,-0.9931,-0.9892,-0.9911,-0.9899,-0.9892,-0.9891,-0.9888,-0.9909,-0.9876,-0.9818,-0.9812,-0.9886,-0.9886,-0.9887,0,-1.0097,-1.0059,-1.0027,-1.0017,-0.9997,-0.9981,-0.9972,-0.9956,-0.9942,-0.9922,-0.9913,-0.989,-0.9878,-0.986,-0.9856,-0.9869,-0.9817,-0.9835,-0.9813,-0.9814,-0.9802,-0.9803,-0.9742,-0.9793,-0.9793,-0.9793,-0.9793,0,-1.0045,-1.0017,-1.001,-0.999,-0.9959,-0.9957,-0.9925,-0.9917,-0.9903,-0.9882,-0.9885,-0.9865,-0.986,-0.9839,-0.9835,-0.9804,-0.9798,-0.9794,-0.9794,-0.9794,-0.9795,-0.9786,-0.9789,-0.9792,-0.9792,-0.9792,-0.9793,0,-0.9999,-0.9994,-0.9959,-0.9943,-0.9939,-0.9916,-0.9903,-0.9884,-0.9878,-0.9851,-0.9844,-0.9835,-0.9811,-0.9804,-0.9775,-0.9772,-0.9736,-0.9737,-0.9742,-0.9742,-0.9721,-0.9724,-0.9653,-0.9644,-0.9701,-0.97,-0.97,0,-0.9967,-0.9945,-0.9928,-0.9914,-0.9905,-0.9882,-0.9869,-0.9866,-0.9851,-0.9831,-0.9815,-0.9791,-0.9772,-0.9733,-0.9723,-0.9701,-0.9703,-0.968,-0.9699,-0.9701,-0.9703,-0.9705,-0.9703,-0.9676,-0.9675,-0.9675,-0.9674,0,-0.991,-0.9909,-0.9889,-0.9869,-0.9852,-0.9836,-0.982,-0.9809,-0.9804,-0.9787,-0.9763,-0.9749,-0.972,-0.9696,-0.9675,-0.9665,-0.9669,-0.9668,-0.9662,-0.9663,-0.9667,-0.9665,-0.9732,-0.967,-0.967,-0.9671,-0.9671,-0.9671,-0.987,-0.9852,-0.9837,-0.9816,-0.9804,-0.9789,-0.9772,-0.9764,-0.9744,-0.9721,-0.9721,-0.9695,-0.9679,-0.965,-0.964,-0.962,-0.9626,-0.9617,-0.9615,-0.9613,-0.9612,-0.967,-0.9615,-0.9615,-0.9616,-0.9616,-0.9616,0,-0.9815,-0.9806,-0.9786,-0.9765,-0.9748,-0.9754,-0.9738,-0.9723,-0.97,-0.9686,-0.9668,-0.9641,-0.9619,-0.9608,-0.9587,-0.9573,-0.9574,-0.9567,-0.9568,-0.9566,-0.9606,-0.9614,-0.9566,-0.9566,-0.9566,-0.9566,-0.9566,-0.9566,-0.9784,-0.9754,-0.9751,-0.9716,-0.9707,-0.9682,-0.9672,-0.966,-0.9648,-0.9618,-0.9601,-0.9594,-0.9582,-0.9559,-0.954,-0.9537,-0.9529,-0.9522,-0.952,-0.9558,-0.9563,-0.9568,-0.9575,-0.952,-0.952,-0.9481,-0.9481,-0.9481]}]]